Weather History for Stevensville, MD

Change the Weather History Date:

Tuesday, September 17, 2013

  Actual Average (KESN) Record (KESN)
Temperature  
Mean Temperature 58 °F -  
Max Temperature 64 °F 82 °F 92 °F (1958)
Min Temperature 51 °F 61 °F 44 °F (1959)
Degree Days  
Heating Degree Days 8    
Growing Degree Days 8 (Base 50)    
Moisture  
Dew Point 43 °F    
Average Humidity 58    
Maximum Humidity 76    
Minimum Humidity 37    
Precipitation  
Precipitation 0.00 in - - ()
Sea Level Pressure  
Sea Level Pressure 30.36 in    
Wind  
Wind Speed 7 mph (NNE)    
Max Wind Speed 13 mph    
Max Gust Speed 21 mph    
Visibility 10 miles    
Events      
Averages and records for this station are not official NWS values.
T = Trace of Precipitation, MM = Missing Value Source: NWS Daily Summary

Daily Weather History Graph

Daily Weather History Graph

Search for Another Location

Airport:

Trip Planner

Search our weather history database for the weather conditions in past years. The results will help you decide how hot, cold, wet, or windy it might be!

Date:

Astronomy

Sep. 17, 2013 Rise Set
Actual Time 6:48 AM EDT 7:10 PM EDT
Civil Twilight 6:21 AM EDT 7:36 PM EDT
Nautical Twilight 5:50 AM EDT 8:08 PM EDT
Astronomical Twilight 5:18 AM EDT 8:39 PM EDT
Moon 5:55 PM EDT (9/17) 4:41 AM EDT (9/17)
Length of Visible Light 13h 14m
Length of Day
12h 21m
Waxing Gibbous, 96% of the Moon is Illuminated
Sep 17
Waxing Gibbous
Sep 19
Full
Sep 26
Last Quarter
Oct 4
New
Oct 11
First Quarter

Hourly Weather History & Observations

Time (EDT) Temp. Dew Point Humidity Pressure Visibility Wind Dir Wind Speed Gust Speed Precip Events Conditions
12:18 AM 62.6 °F 51.8 °F 68% 30.24 in 10.0 mi NNE 6.9 mph - N/A   Clear
12:58 AM 62.6 °F 50.0 °F 63% 30.25 in 10.0 mi North 8.1 mph - N/A   Clear
1:18 AM 60.8 °F 50.0 °F 68% 30.26 in 10.0 mi NNE 5.8 mph - N/A   Clear
1:38 AM 60.8 °F 50.0 °F 68% 30.27 in 10.0 mi North 4.6 mph - N/A   Clear
1:58 AM 60.8 °F 50.0 °F 68% 30.27 in 10.0 mi NNE 8.1 mph - N/A   Clear
2:18 AM 59.0 °F 50.0 °F 72% 30.27 in 10.0 mi NNE 8.1 mph 16.1 mph N/A   Scattered Clouds
2:38 AM 59.0 °F 50.0 °F 72% 30.28 in 10.0 mi NNE 5.8 mph - N/A   Scattered Clouds
2:58 AM 59.0 °F 48.2 °F 67% 30.28 in 10.0 mi NNE 6.9 mph 16.1 mph N/A   Clear
3:18 AM 59.0 °F 46.4 °F 63% 30.29 in 10.0 mi North 12.7 mph 20.7 mph N/A   Clear
3:38 AM 59.0 °F 46.4 °F 63% 30.29 in 10.0 mi NNE 8.1 mph - N/A   Scattered Clouds
3:58 AM 57.2 °F 46.4 °F 67% 30.30 in 10.0 mi NNE 8.1 mph - N/A   Scattered Clouds
4:18 AM 55.4 °F 46.4 °F 72% 30.31 in 10.0 mi NNE 10.4 mph 16.1 mph N/A   Scattered Clouds
4:38 AM 55.4 °F 46.4 °F 72% 30.31 in 10.0 mi NNE 6.9 mph - N/A   Clear
4:58 AM 53.6 °F 44.6 °F 72% 30.32 in 10.0 mi North 5.8 mph - N/A   Clear
5:18 AM 53.6 °F 44.6 °F 72% 30.33 in 10.0 mi NNE 8.1 mph - N/A   Clear
5:38 AM 53.6 °F 44.6 °F 72% 30.33 in 10.0 mi NNE 10.4 mph 17.3 mph N/A   Clear
5:58 AM 53.6 °F 44.6 °F 72% 30.34 in 10.0 mi NNE 10.4 mph 17.3 mph N/A   Clear
6:18 AM 51.8 °F 42.8 °F 71% 30.35 in 10.0 mi NNE 8.1 mph - N/A   Clear
6:38 AM 51.8 °F 42.8 °F 71% 30.36 in 10.0 mi North 9.2 mph - N/A   Scattered Clouds
6:59 AM 51.8 °F 42.8 °F 71% 30.36 in 10.0 mi North 9.2 mph - N/A   Scattered Clouds
7:19 AM 51.8 °F 42.8 °F 71% 30.37 in 10.0 mi NNE 6.9 mph - N/A   Clear
7:39 AM 51.8 °F 42.8 °F 71% 30.38 in 10.0 mi NNE 5.8 mph - N/A   Clear
7:59 AM 51.8 °F 44.6 °F 76% 30.39 in 10.0 mi NE 6.9 mph - N/A   Clear
8:19 AM 53.6 °F 42.8 °F 67% 30.39 in 10.0 mi NE 6.9 mph - N/A   Mostly Cloudy
8:39 AM 53.6 °F 42.8 °F 67% 30.40 in 10.0 mi NNE 9.2 mph - N/A   Overcast
8:59 AM 53.6 °F 41.0 °F 62% 30.41 in 10.0 mi NNE 11.5 mph - N/A   Overcast
9:19 AM 55.4 °F 41.0 °F 58% 30.41 in 10.0 mi NNE 9.2 mph - N/A   Mostly Cloudy
9:39 AM 57.2 °F 41.0 °F 55% 30.42 in 10.0 mi NNE 8.1 mph - N/A   Scattered Clouds
9:59 AM 57.2 °F 41.0 °F 55% 30.41 in 10.0 mi NE 8.1 mph - N/A   Clear
10:19 AM 57.2 °F 41.0 °F 55% 30.41 in 10.0 mi NNE 8.1 mph - N/A   Clear
10:39 AM 59.0 °F 41.0 °F 51% 30.42 in 10.0 mi NNE 3.5 mph - N/A   Clear
10:59 AM 59.0 °F 41.0 °F 51% 30.43 in 10.0 mi North 8.1 mph - N/A   Clear
11:19 AM 59.0 °F 41.0 °F 51% 30.43 in 10.0 mi NE 8.1 mph - N/A   Clear
11:39 AM 60.8 °F 41.0 °F 48% 30.43 in 10.0 mi NE 4.6 mph - N/A   Clear
11:59 AM 60.8 °F 39.2 °F 45% 30.42 in 10.0 mi NNE 5.8 mph - N/A   Clear
12:19 PM 60.8 °F 37.4 °F 42% 30.43 in 10.0 mi NNW 8.1 mph - N/A   Clear
12:39 PM 60.8 °F 39.2 °F 45% 30.42 in 10.0 mi NNW 8.1 mph - N/A   Clear
12:59 PM 62.6 °F 41.0 °F 45% 30.42 in 10.0 mi North 6.9 mph - N/A   Clear
1:19 PM 60.8 °F 41.0 °F 48% 30.42 in 10.0 mi NNW 6.9 mph - N/A   Clear
1:39 PM 60.8 °F 41.0 °F 48% 30.41 in 10.0 mi NNW 9.2 mph 17.3 mph N/A   Clear
1:59 PM 62.6 °F 41.0 °F 45% 30.40 in 10.0 mi NNW 6.9 mph - N/A   Clear
2:19 PM 62.6 °F 39.2 °F 42% 30.39 in 10.0 mi NNW 10.4 mph - N/A   Clear
2:39 PM 62.6 °F 39.2 °F 42% 30.38 in 10.0 mi NNW 9.2 mph - N/A   Clear
2:59 PM 62.6 °F 41.0 °F 45% 30.37 in 10.0 mi NNW 9.2 mph - N/A   Clear
3:19 PM 62.6 °F 37.4 °F 39% 30.37 in 10.0 mi NW 8.1 mph - N/A   Clear
3:40 PM 64.4 °F 39.2 °F 40% 30.36 in 10.0 mi NNW 9.2 mph - N/A   Clear
4:00 PM 62.6 °F 39.2 °F 42% 30.35 in 10.0 mi NW 6.9 mph - N/A   Clear
4:20 PM 64.4 °F 39.2 °F 40% 30.35 in 10.0 mi North 8.1 mph - N/A   Clear
4:40 PM 64.4 °F 39.2 °F 40% 30.35 in 10.0 mi NNW 6.9 mph - N/A   Clear
5:00 PM 64.4 °F 41.0 °F 42% 30.34 in 10.0 mi NNW 5.8 mph - N/A   Clear
5:20 PM 64.4 °F 41.0 °F 42% 30.34 in 10.0 mi NNW 4.6 mph - N/A   Clear
5:40 PM 64.4 °F 41.0 °F 42% 30.34 in 10.0 mi North 5.8 mph - N/A   Clear
6:00 PM 64.4 °F 42.8 °F 45% 30.34 in 10.0 mi NNW 5.8 mph - N/A   Clear
6:20 PM 64.4 °F 37.4 °F 37% 30.33 in 10.0 mi NE 4.6 mph - N/A   Clear
6:40 PM 62.6 °F 37.4 °F 39% 30.33 in 10.0 mi ENE 5.8 mph - N/A   Clear
7:00 PM 60.8 °F 37.4 °F 42% 30.33 in 10.0 mi Calm Calm - N/A   Clear
7:20 PM 60.8 °F 39.2 °F 45% 30.33 in 10.0 mi Calm Calm - N/A   Clear
7:40 PM 59.0 °F 41.0 °F 51% 30.34 in 10.0 mi ENE 3.5 mph - N/A   Clear
8:00 PM 59.0 °F 41.0 °F 51% 30.34 in 10.0 mi Calm Calm - N/A   Clear
8:20 PM 57.2 °F 42.8 °F 59% 30.35 in 10.0 mi Calm Calm - N/A   Clear
8:40 PM 57.2 °F 41.0 °F 55% 30.35 in 10.0 mi Calm Calm - N/A   Clear
9:00 PM 55.4 °F 42.8 °F 63% 30.35 in 10.0 mi Calm Calm - N/A   Clear
9:20 PM 55.4 °F 44.6 °F 67% 30.36 in 10.0 mi ESE 8.1 mph - N/A   Clear
9:40 PM 55.4 °F 46.4 °F 72% 30.36 in 10.0 mi SE 4.6 mph - N/A   Clear
10:00 PM 55.4 °F 46.4 °F 72% 30.36 in 10.0 mi SE 5.8 mph - N/A   Clear
10:20 PM 55.4 °F 44.6 °F 67% 30.37 in 10.0 mi SE 6.9 mph - N/A   Clear
10:40 PM 55.4 °F 46.4 °F 72% 30.37 in 10.0 mi ESE 4.6 mph - N/A   Clear
11:00 PM 55.4 °F 46.4 °F 72% 30.36 in 10.0 mi ESE 5.8 mph - N/A   Clear
11:20 PM 55.4 °F 46.4 °F 72% 30.36 in 10.0 mi SE 4.6 mph - N/A   Clear
11:40 PM 55.4 °F 46.4 °F 72% 30.36 in 10.0 mi ESE 4.6 mph - N/A   Clear